Total_Precipitation_Accumulation
0.00 0.01 0.02 0.02 0.04 0.06 0.06 0.06 0.08 0.09 0.08 0.09 0.11 0.15 0.14 0.10 0.08 0.07 0.07 0.08 0.10 0.14 0.14 0.13 0.13 0.13 0.11 0.09 0.06 0.04 0.03 0.03 0.04 0.04 0.06 0.08 0.09 0.09 0.09 0.09 0.14 0.20 0.07
0.01 0.00 0.01 0.01 0.03 0.05 0.06 0.05 0.06 0.07 0.06 0.08 0.09 0.11 0.11 0.10 0.09 0.08 0.07 0.08 0.10 0.13 0.13 0.11 0.09 0.11 0.09 0.06 0.04 0.02 0.02 0.03 0.07 0.09 0.09 0.11 0.14 0.12 0.12 0.11 0.19 0.35 0.16
0.01 0.00 0.01 0.02 0.03 0.04 0.05 0.06 0.06 0.05 0.06 0.08 0.09 0.09 0.10 0.09 0.09 0.08 0.08 0.11 0.16 0.19 0.17 0.14 0.12 0.13 0.11 0.07 0.04 0.02 0.02 0.05 0.10 0.17 0.31 0.32 0.33 0.17 0.15 0.12 0.13 0.15 0.18
0.01 0.00 0.01 0.02 0.03 0.04 0.04 0.05 0.08 0.08 0.07 0.07 0.08 0.08 0.09 0.08 0.08 0.08 0.08 0.11 0.17 0.21 0.21 0.19 0.16 0.14 0.11 0.06 0.04 0.03 0.03 0.06 0.13 0.28 0.54 0.53 0.47 0.29 0.20 0.19 0.18 0.16 0.20
0.01 0.00 0.01 0.02 0.02 0.04 0.04 0.04 0.07 0.08 0.07 0.07 0.08 0.08 0.09 0.09 0.08 0.09 0.10 0.10 0.12 0.16 0.15 0.11 0.09 0.09 0.09 0.05 0.03 0.03 0.04 0.08 0.18 0.40 0.74 0.89 0.73 0.43 0.23 0.22 0.25 0.25 0.26
0.01 0.00 0.01 0.02 0.03 0.05 0.05 0.06 0.07 0.08 0.08 0.09 0.10 0.12 0.12 0.11 0.10 0.12 0.14 0.14 0.13 0.13 0.12 0.09 0.08 0.07 0.08 0.04 0.03 0.05 0.07 0.12 0.23 0.55 0.88 0.98 0.64 0.40 0.29 0.29 0.29 0.31 0.30
0.02 0.01 0.01 0.02 0.05 0.07 0.08 0.11 0.13 0.13 0.13 0.14 0.16 0.17 0.16 0.14 0.14 0.15 0.16 0.16 0.15 0.15 0.12 0.11 0.12 0.11 0.07 0.03 0.02 0.04 0.06 0.10 0.27 0.85 1.01 0.95 0.69 0.42 0.32 0.28 0.25 0.25 0.25
0.02 0.01 0.00 0.02 0.05 0.10 0.14 0.16 0.18 0.15 0.14 0.14 0.17 0.19 0.16 0.12 0.11 0.11 0.11 0.12 0.14 0.16 0.15 0.10 0.06 0.05 0.02 0.01 0.01 0.03 0.06 0.09 0.23 0.59 0.82 0.69 0.48 0.29 0.22 0.16 0.15 0.14 0.14
0.02 0.01 0.00 0.01 0.03 0.11 0.18 0.17 0.16 0.14 0.13 0.15 0.18 0.21 0.18 0.12 0.09 0.08 0.10 0.12 0.12 0.11 0.08 0.04 0.02 0.01 0.00 0.01 0.01 0.02 0.04 0.06 0.16 0.32 0.43 0.42 0.34 0.18 0.11 0.08 0.07 0.07 0.06
0.03 0.01 0.01 0.02 0.05 0.10 0.11 0.12 0.12 0.11 0.12 0.14 0.16 0.15 0.12 0.08 0.08 0.08 0.07 0.07 0.07 0.08 0.08 0.04 0.02 0.01 0.01 0.01 0.01 0.01 0.02 0.03 0.10 0.20 0.42 0.49 0.30 0.15 0.09 0.07 0.05 0.05 0.04
0.02 0.01 0.01 0.02 0.03 0.05 0.05 0.02 0.04 0.05 0.07 0.07 0.06 0.07 0.06 0.08 0.12 0.12 0.07 0.06 0.09 0.10 0.08 0.04 0.02 0.02 0.01 0.01 0.01 0.01 0.01 0.02 0.10 0.30 0.56 0.59 0.29 0.15 0.08 0.06 0.05 0.04 0.03
0.01 0.01 0.01 0.01 0.02 0.04 0.05 0.03 0.04 0.03 0.03 0.03 0.05 0.03 0.06 0.19 0.27 0.20 0.17 0.12 0.10 0.08 0.04 0.03 0.03 0.02 0.02 0.02 0.03 0.02 0.02 0.02 0.11 0.39 0.52 0.28 0.20 0.16 0.11 0.07 0.05 0.04 0.04
0.03 0.01 0.01 0.01 0.03 0.14 0.16 0.06 0.07 0.07 0.06 0.04 0.09 0.07 0.15 0.22 0.18 0.16 0.18 0.12 0.08 0.05 0.05 0.06 0.04 0.03 0.03 0.04 0.05 0.04 0.05 0.07 0.10 0.26 0.37 0.22 0.19 0.20 0.16 0.12 0.07 0.06 0.06
0.04 0.02 0.01 0.01 0.04 0.10 0.14 0.07 0.06 0.06 0.06 0.07 0.11 0.07 0.17 0.23 0.22 0.24 0.32 0.23 0.18 0.16 0.15 0.11 0.09 0.07 0.06 0.07 0.06 0.06 0.07 0.08 0.10 0.17 0.20 0.15 0.17 0.22 0.22 0.19 0.15 0.12 0.12
0.07 0.05 0.03 0.02 0.04 0.04 0.06 0.06 0.06 0.06 0.05 0.06 0.10 0.10 0.15 0.19 0.22 0.28 0.33 0.38 0.27 0.28 0.27 0.22 0.18 0.19 0.15 0.10 0.09 0.09 0.08 0.09 0.10 0.13 0.17 0.17 0.19 0.25 0.30 0.27 0.23 0.20 0.21
0.11 0.11 0.08 0.05 0.03 0.03 0.04 0.05 0.06 0.06 0.09 0.11 0.13 0.13 0.11 0.18 0.33 0.40 0.39 0.37 0.27 0.27 0.33 0.41 0.39 0.28 0.21 0.18 0.14 0.13 0.12 0.14 0.15 0.17 0.21 0.19 0.21 0.25 0.32 0.33 0.32 0.31 0.28
0.15 0.14 0.13 0.12 0.05 0.04 0.04 0.06 0.09 0.11 0.13 0.17 0.23 0.18 0.15 0.19 0.33 0.34 0.41 0.42 0.35 0.32 0.30 0.32 0.36 0.38 0.33 0.28 0.24 0.18 0.19 0.21 0.26 0.31 0.34 0.28 0.27 0.29 0.33 0.35 0.34 0.32 0.29
0.18 0.16 0.14 0.13 0.09 0.07 0.08 0.11 0.15 0.18 0.24 0.28 0.29 0.34 0.33 0.30 0.36 0.41 0.46 0.49 0.46 0.45 0.49 0.49 0.46 0.47 0.48 0.43 0.41 0.38 0.34 0.36 0.35 0.38 0.36 0.39 0.42 0.36 0.33 0.30 0.29 0.29 0.28
0.19 0.15 0.15 0.14 0.13 0.12 0.13 0.17 0.24 0.28 0.34 0.41 0.42 0.60 0.65 0.59 0.56 0.61 0.66 0.70 0.69 0.72 0.70 0.64 0.61 0.58 0.62 0.59 0.45 0.40 0.39 0.42 0.39 0.34 0.34 0.37 0.41 0.38 0.32 0.28 0.28 0.28 0.28
0.32 0.23 0.19 0.18 0.22 0.22 0.22 0.27 0.33 0.42 0.51 0.61 0.68 0.83 0.97 1.07 1.04 1.02 1.00 0.99 0.98 0.96 0.89 0.78 0.72 0.65 0.60 0.54 0.40 0.34 0.31 0.29 0.29 0.29 0.29 0.29 0.29 0.28 0.28 0.27 0.25 0.23 0.24
0.48 0.39 0.31 0.30 0.37 0.42 0.47 0.50 0.59 0.80 0.97 1.15 1.38 1.59 1.67 1.61 1.55 1.45 1.35 1.34 1.25 1.14 1.01 0.91 0.78 0.67 0.57 0.46 0.43 0.39 0.29 0.22 0.20 0.20 0.21 0.22 0.23 0.25 0.29 0.30 0.26 0.21 0.19
0.77 0.65 0.58 0.58 0.73 0.91 1.12 1.35 1.59 1.80 1.90 2.07 2.25 2.32 2.26 2.11 2.00 1.88 1.79 1.69 1.49 1.32 1.15 0.98 0.84 0.74 0.62 0.50 0.47 0.49 0.42 0.31 0.21 0.17 0.17 0.16 0.16 0.15 0.17 0.18 0.17 0.16 0.15
1.06 1.00 0.94 1.02 1.36 1.81 2.01 2.16 2.51 2.81 2.86 2.86 2.77 2.67 2.60 2.49 2.36 2.21 2.10 1.95 1.71 1.46 1.26 1.05 0.87 0.75 0.64 0.53 0.46 0.46 0.43 0.36 0.25 0.18 0.14 0.11 0.10 0.10 0.10 0.09 0.10 0.11 0.11
1.21 1.26 1.27 1.52 1.98 2.38 2.65 3.03 3.44 3.66 3.77 3.79 3.49 3.13 2.79 2.49 2.25 2.03 1.87 1.67 1.46 1.24 1.08 0.91 0.74 0.61 0.56 0.47 0.39 0.33 0.29 0.25 0.23 0.18 0.11 0.08 0.07 0.06 0.06 0.06 0.06 0.07 0.07
1.05 1.27 1.45 1.80 2.20 2.68 3.22 3.73 4.06 4.19 4.17 3.87 3.32 2.80 2.47 2.24 1.97 1.70 1.47 1.26 1.06 0.89 0.76 0.66 0.56 0.49 0.44 0.37 0.30 0.24 0.21 0.18 0.16 0.16 0.13 0.08 0.07 0.07 0.06 0.06 0.06 0.07 0.07
1.10 1.27 1.49 1.74 2.10 2.61 3.10 3.51 3.54 3.61 3.56 3.20 2.78 2.47 2.23 1.90 1.55 1.23 0.99 0.79 0.62 0.51 0.46 0.42 0.36 0.30 0.25 0.21 0.16 0.12 0.10 0.10 0.10 0.10 0.10 0.08 0.06 0.06 0.06 0.06 0.07 0.07 0.07